Regional Weather Roundup
Issued by NWS Sterling, VA

Home | Current Version | Previous Version | Graphics & Text | Print | Product List | Glossary On
Versions: 1 2 3 4 5 6 7 8 9 10 11 12 13 14 15 16 17 18 19 20 21 22 23 24 25 26 27 28
000
ASUS41 KLWX 232211
RWRLWX

REGIONAL WEATHER ROUNDUP
NATIONAL WEATHER SERVICE BALTIMORE MD/WASHINGTON DC
600 PM EDT TUE AUG 23 2016

Note: "FAIR" indicates few or no clouds below 12,000 feet
with no significant weather and/or obstructions to visibility.
 TC=TEMPERATURE CELSIUS

 * =Non NWS site. Station does not report precipitation (e.g. rain,
    snow, etc.), thunder, or fog.

DCZ001-MDZ009-015-VAZ040>042-051-053>054-232300-
WASHINGTON METRO

CITY           SKY/WX    TMP DP  RH WIND       PRES   REMARKS
WASHINGTON NAT MOSUNNY   83  59  44 S8        30.26F
DULLES         MOSUNNY   82  57  42 W7        30.26F
ANDREWS AFB    SUNNY     79  60  50 SE9       30.26F
FT BELVOIR     SUNNY     81  59  47 VRB2      30.26F
QUANTICO       MOSUNNY   82  59  45 S5        30.27F
COLLEGE PARK*  SUNNY     81  55  41 SE3       30.26S
LEESBURG*      SUNNY     84  61  45 CALM      30.28S
MANASSAS*      SUNNY     81  63  54 S5        30.27F
GAITHERSBURG*  MOSUNNY   81  57  44 CALM      30.30F

$$

MDZ006>007-011-014-232300-
BALTIMORE METRO

CITY           SKY/WX    TMP DP  RH WIND       PRES   REMARKS
BWI AIRPORT    MOSUNNY   80  58  46 CALM      30.26F
MD SCIENCE CTR   N/A     80  57  45 MISG      30.23F
MARTIN STATE   MOSUNNY   81  61  50 S3        30.28F
ANNAPOLIS      SUNNY     79  58  48 SE9       30.27F
FORT MEADE*    SUNNY     73  63  68 S3        30.29S

$$

MDZ012-015-019>023-232300-
MARYLAND EASTERN SHORE

CITY           SKY/WX    TMP DP  RH WIND       PRES   REMARKS
OCEAN CITY     SUNNY     75  57  53 E8        30.28F
SALISBURY      SUNNY     80  55  42 N6        30.27F
BAY BRIDGE AP* SUNNY     81  57  44 S6        30.27F
CAMBRIDGE*     SUNNY     79  55  44 CALM      30.27F
EASTON*        SUNNY     81  63  54 CALM      30.31F

$$

MDZ017>025-232300-
SOUTHERN MARYLAND

CITY           SKY/WX    TMP DP  RH WIND       PRES   REMARKS
PATUXENT RIVER MOSUNNY   79  55  43 E7        30.27F
ST INIGOES     SUNNY     80  57  45 E6        30.26F
LEONARDTOWN*   SUNNY     79  55  44 E3        30.29S

$$

MDZ003>005-232300-
NORTH CENTRAL MARYLAND

CITY           SKY/WX    TMP DP  RH WIND       PRES   REMARKS
FREDERICK*     MOSUNNY   82  64  54 S6        30.29F
HAGERSTOWN APT MOSUNNY   82  57  42 S9        30.27F

$$

MDZ501>502-232300-
WESTERN MARYLAND

CITY           SKY/WX    TMP DP  RH WIND       PRES   REMARKS
OAKLAND*       MOSUNNY   72  55  56 E3        30.36S
CUMBERLAND*    MOSUNNY   82  57  42 E5        30.29F

$$

VAZ025>031-232300-
SHENANDOAH VALLEY

CITY           SKY/WX    TMP DP  RH WIND       PRES   REMARKS
WINCHESTER*    SUNNY     79  61  53 S6        30.27F
FRONT ROYAL*   FAIR      81  64  57 CALM      30.26F
LURAY*         FAIR      81  61  50 SW5       30.27F
NEW MARKET*    FAIR     N/A N/A N/A SW7       30.26S
STAUNTON*      SUNNY     79  61  53 SE7       30.30F
WAYNESBORO*    CLOUDY    76  61  60 SE7       30.30F

$$

WVZ021-048>050-054>055-232300-
EASTERN WEST VIRGINIA PANHANDLE

CITY           SKY/WX    TMP DP  RH WIND       PRES   REMARKS
MARTINSBURG    SUNNY     80  61  52 S6        30.26F
PETERSBURG*    MOSUNNY   84  61  45 S3        30.25S

$$

VAZ036>039-050-232300-
CENTRAL FOOTHILLS

CITY           SKY/WX    TMP DP  RH WIND       PRES   REMARKS
CHARLOTTESVILL MOSUNNY   83  62  49 CALM      30.27S
CULPEPER*      MOSUNNY   82  64  53 CALM      30.27F
ORANGE*          N/A     81  63  54 CALM      30.29S
GORDONSVILLE*  MOCLDY    82  64  54 CALM      30.26F
WARRENTON*     FAIR      82  57  41 S5        30.26F

$$

VAZ055>057-232300-
NORTH AND CENTRAL PIEDMONT

CITY           SKY/WX    TMP DP  RH WIND       PRES   REMARKS
FREDERICKSBRG*   N/A     82  63  52 SE5       30.25F
STAFFORD*      SUNNY     81  59  46 SE5       30.30F

$$

NCZ024-NYZ072-PAZ021-071-VAZ022-071-232300-
OTHER REGIONAL OBSERVATIONS

CITY           SKY/WX    TMP DP  RH WIND       PRES   REMARKS
NEW YORK CITY  SUNNY     79  55  43 CALM      30.27F
PHILADELPHIA   MOSUNNY   82  53  36 SW7       30.26F
PITTSBURGH     PTSUNNY   79  54  41 VRB3      30.27S
ROANOKE        PTSUNNY   80  62  54 SE6       30.29F
RICHMOND       MOSUNNY   81  58  45 E7        30.26S
RALEIGH        MOSUNNY   86  59  39 NE5       30.24S

$$

ANZ530>537-232300-
MARINE OBSERVATIONS

STATION/POSITION TIME  TEMP    WIND        PRES
                       AIR SEA DIR/SP/G
                 (UTC) (F)     (DEG/KT/KT) (MB)
THOMAS PT LIGHT  2200   78 83  150/  5/  6 1026.2F
BALT KEY BRIDGE  2142   78     130/ 10/ 12   N/A
COVE POINT       2142   78      60/  3/  6   N/A
LEWISETTA        2142   78 82  110/  6/  7   N/A
SOLOMONS ISLAND  2148   79 85   60/  5/  7   N/A
PINEY POINT      2136          150/  6/  7   N/A

$$





USA.gov is the U.S. government's official web portal to all federal, state and local government web resources and services.